Weather History for Hillsdale, MI

Change the Weather History Date:

Tuesday, July 16, 2013

  Actual Average Record
Temperature  
Mean Temperature 82 °F -  
Max Temperature 90 °F 83 °F 96 °F (2012)
Min Temperature 73 °F 58 °F 45 °F (1954)
Cooling Degree Days 16    
Growing Degree Days 32 (Base 50)    
Moisture  
Dew Point 72 °F    
Average Humidity 76    
Maximum Humidity 100    
Minimum Humidity 47    
Precipitation  
Precipitation 0.00 in - - ()
Sea Level Pressure  
Sea Level Pressure 30.33 in    
Wind  
Wind Speed 2 mph (West)    
Max Wind Speed 9 mph    
Max Gust Speed -    
Visibility 10 miles    
Events      
Averages and records for this station are not official NWS values.
T = Trace of Precipitation, MM = Missing Value Source: NWS Daily Summary

Daily Weather History Graph

Daily Weather History Graph

Search for Another Location

Airport:

Trip Planner

Search our weather history database for the weather conditions in past years. The results will help you decide how hot, cold, wet, or windy it might be!

Date:

Astronomy

Jul. 16, 2013 Rise Set
Actual Time 6:17 AM EDT 9:11 PM EDT
Civil Twilight 5:44 AM EDT 9:44 PM EDT
Nautical Twilight 5:02 AM EDT 10:25 PM EDT
Astronomical Twilight 4:13 AM EDT 11:14 PM EDT
Moon 2:49 PM EDT (7/16) 12:49 AM EDT (7/16)
Length of Visible Light 15h 59m
Length of Day
14h 53m
First Quarter, 56% of the Moon is Illuminated
Jul 16
First Quarter
Jul 22
Full
Jul 29
Last Quarter
Aug 6
New
Aug 14
First Quarter

Hourly Weather History & Observations

Time (EDT) Temp. Heat Index Dew Point Humidity Pressure Visibility Wind Dir Wind Speed Gust Speed Precip Events Conditions
12:15 AM 76.5 °F - 75.9 °F 98% 30.32 in 10.0 mi Calm Calm - N/A   Scattered Clouds
12:34 AM 76.6 °F - 76.1 °F 98% 30.32 in 10.0 mi Calm Calm - N/A   Mostly Cloudy
12:55 AM 76.5 °F - 75.9 °F 98% 30.33 in 10.0 mi Calm Calm - N/A   Scattered Clouds
1:15 AM 75.6 °F - 75.2 °F 99% 30.32 in 10.0 mi Calm Calm - N/A   Scattered Clouds
1:34 AM 74.8 °F - 74.7 °F 99% 30.32 in 10.0 mi Calm Calm - N/A   Clear
1:55 AM 75.7 °F - 75.6 °F 99% 30.32 in 10.0 mi Calm Calm - N/A   Scattered Clouds
2:15 AM 75.7 °F - 75.6 °F 99% 30.32 in 10.0 mi Calm Calm - N/A   Clear
2:34 AM 75.7 °F - 75.6 °F 99% 30.32 in 10.0 mi Calm Calm - N/A   Clear
2:55 AM 75.6 °F - 75.2 °F 99% 30.32 in 10.0 mi Calm Calm - N/A   Clear
3:14 AM 75.4 °F - 75.0 °F 99% 30.32 in 7.0 mi Calm Calm - N/A   Clear
3:35 AM 75.6 °F - 75.4 °F 99% 30.31 in 10.0 mi Calm Calm - N/A   Clear
3:55 AM 74.3 °F - 74.1 °F 99% 30.31 in 7.0 mi Calm Calm - N/A   Clear
4:14 AM 73.9 °F - 73.9 °F 100% 30.31 in 5.0 mi Calm Calm - N/A   Clear
4:35 AM 74.1 °F - 74.1 °F 100% 30.31 in 4.0 mi Calm Calm - N/A   Clear
4:55 AM 73.8 °F - 73.8 °F 100% 30.31 in 4.0 mi Calm Calm - N/A   Clear
5:14 AM 74.1 °F - 74.1 °F 100% 30.31 in 7.0 mi Calm Calm - N/A   Clear
5:35 AM 74.1 °F - 74.1 °F 100% 30.31 in 7.0 mi Calm Calm - N/A   Clear
5:54 AM 74.7 °F - 74.7 °F 100% 30.32 in 7.0 mi Calm Calm - N/A   Clear
6:14 AM 75.6 °F - 75.6 °F 100% 30.33 in 10.0 mi Calm Calm - N/A   Clear
6:35 AM 75.9 °F - 75.2 °F 98% 30.33 in 10.0 mi Calm Calm - N/A   Clear
6:54 AM 76.6 °F - 74.5 °F 93% 30.33 in 10.0 mi Calm Calm - N/A   Clear
7:14 AM 76.5 °F - 74.7 °F 94% 30.34 in 10.0 mi Calm Calm - N/A   Clear
7:35 AM 77.2 °F - 75.2 °F 94% 30.34 in 10.0 mi WNW 3.5 mph - N/A   Clear
7:54 AM 78.6 °F - 75.0 °F 89% 30.35 in 10.0 mi West 4.6 mph - N/A   Clear
8:15 AM 81.0 °F 86.7 °F 74.8 °F 82% 30.36 in 10.0 mi West 5.8 mph - N/A   Clear
8:35 AM 80.1 °F 84.8 °F 74.5 °F 83% 30.36 in 10.0 mi WNW 4.6 mph - N/A   Scattered Clouds
8:54 AM 80.8 °F 86.3 °F 74.8 °F 82% 30.36 in 10.0 mi WNW 4.6 mph - N/A   Scattered Clouds
9:15 AM 81.7 °F 88.0 °F 74.8 °F 80% 30.37 in 10.0 mi NW 3.5 mph - N/A   Scattered Clouds
9:35 AM 81.9 °F 88.2 °F 74.8 °F 79% 30.37 in 10.0 mi WNW 5.8 mph - N/A   Mostly Cloudy
9:54 AM 82.8 °F 89.5 °F 74.7 °F 76% 30.37 in 10.0 mi WNW 9.2 mph - N/A   Scattered Clouds
10:15 AM 84.6 °F 92.8 °F 75.0 °F 73% 30.36 in 10.0 mi WNW 6.9 mph - N/A   Scattered Clouds
10:34 AM 85.1 °F 92.9 °F 74.1 °F 70% 30.36 in 10.0 mi WNW 4.6 mph - N/A   Scattered Clouds
10:55 AM 85.8 °F 92.6 °F 73.0 °F 65% 30.36 in 10.0 mi NW 9.2 mph - N/A   Scattered Clouds
11:14 AM 86.4 °F 94.2 °F 73.6 °F 66% 30.36 in 10.0 mi West 3.5 mph - N/A   Scattered Clouds
11:35 AM 86.0 °F 91.8 °F 71.8 °F 62% 30.36 in 10.0 mi West 5.8 mph - N/A   Mostly Cloudy
11:55 AM 87.3 °F 93.6 °F 71.6 °F 60% 30.36 in 10.0 mi WNW 6.9 mph - N/A   Scattered Clouds
12:14 PM 87.1 °F 92.8 °F 71.2 °F 59% 30.36 in 10.0 mi WNW 5.8 mph - N/A   Scattered Clouds
12:35 PM 87.4 °F 94.4 °F 72.7 °F 61% 30.36 in 10.0 mi NW 8.1 mph - N/A   Scattered Clouds
12:55 PM 87.1 °F 92.4 °F 70.7 °F 58% 30.35 in 10.0 mi WNW 4.6 mph - N/A   Scattered Clouds
1:14 PM 86.5 °F 92.1 °F 71.2 °F 60% 30.35 in 10.0 mi Calm Calm - N/A   Scattered Clouds
1:35 PM 88.2 °F 93.3 °F 70.3 °F 55% 30.35 in 10.0 mi West 4.6 mph - N/A   Scattered Clouds
1:54 PM 89.4 °F 95.3 °F 70.9 °F 54% 30.34 in 10.0 mi WNW 4.6 mph - N/A   Mostly Cloudy
2:14 PM 88.9 °F 94.2 °F 70.5 °F 54% 30.34 in 10.0 mi WSW 5.8 mph - N/A   Mostly Cloudy
2:35 PM 89.1 °F 95.0 °F 70.9 °F 55% 30.34 in 10.0 mi Calm Calm - N/A   Scattered Clouds
2:54 PM 88.7 °F 93.9 °F 70.3 °F 54% 30.33 in 10.0 mi West 6.9 mph - N/A   Scattered Clouds
3:14 PM 90.0 °F 94.1 °F 68.5 °F 49% 30.33 in 10.0 mi WSW 5.8 mph - N/A   Scattered Clouds
3:35 PM 90.3 °F 94.3 °F 68.4 °F 48% 30.32 in 10.0 mi WSW 8.1 mph - N/A   Clear
3:54 PM 90.3 °F 94.3 °F 68.2 °F 48% 30.32 in 10.0 mi West 4.6 mph - N/A   Clear
4:15 PM 90.5 °F 95.1 °F 68.7 °F 49% 30.32 in 10.0 mi West 5.8 mph - N/A   Scattered Clouds
4:35 PM 90.3 °F 94.7 °F 69.1 °F 49% 30.32 in 10.0 mi West 6.9 mph - N/A   Scattered Clouds
4:54 PM 90.1 °F 94.0 °F 68.0 °F 48% 30.32 in 10.0 mi WSW 5.8 mph - N/A   Scattered Clouds
5:15 PM 90.9 °F 94.8 °F 67.8 °F 47% 30.32 in 10.0 mi West 5.8 mph - N/A   Clear
5:34 PM 90.9 °F 94.8 °F 68.2 °F 47% 30.32 in 10.0 mi WNW 6.9 mph - N/A   Clear
5:55 PM 89.4 °F 94.0 °F 68.9 °F 51% 30.31 in 10.0 mi SW 5.8 mph - N/A   Clear
6:15 PM 89.8 °F 93.8 °F 68.2 °F 49% 30.31 in 10.0 mi WSW 6.9 mph - N/A   Clear
6:34 PM 89.1 °F 92.1 °F 67.1 °F 48% 30.30 in 10.0 mi West 6.9 mph - N/A   Clear
6:55 PM 89.1 °F 92.1 °F 67.3 °F 48% 30.30 in 10.0 mi West 5.8 mph - N/A   Clear
7:15 PM 88.5 °F 91.6 °F 67.3 °F 49% 30.30 in 10.0 mi West 5.8 mph - N/A   Clear
7:34 PM 88.2 °F 91.7 °F 68.0 °F 51% 30.30 in 10.0 mi West 3.5 mph - N/A   Clear
7:55 PM 87.3 °F 90.5 °F 67.6 °F 52% 30.31 in 10.0 mi West 4.6 mph - N/A   Clear
8:14 PM 86.4 °F 90.0 °F 68.5 °F 55% 30.31 in 10.0 mi West 3.5 mph - N/A   Clear
8:34 PM 85.5 °F 89.1 °F 68.7 °F 57% 30.31 in 10.0 mi Calm Calm - N/A   Clear
8:55 PM 83.7 °F 88.0 °F 70.2 °F 64% 30.31 in 10.0 mi Calm Calm - N/A   Clear
9:14 PM 80.4 °F 85.5 °F 74.5 °F 82% 30.31 in 10.0 mi Calm Calm - N/A   Clear
9:34 PM 79.7 °F - 73.2 °F 80% 30.31 in 10.0 mi Calm Calm - N/A   Clear
9:55 PM 76.8 °F - 74.3 °F 92% 30.31 in 10.0 mi Calm Calm - N/A   Clear
10:14 PM 77.2 °F - 73.9 °F 90% 30.31 in 10.0 mi Calm Calm - N/A   Clear
10:35 PM 76.5 °F - 73.6 °F 91% 30.31 in 10.0 mi Calm Calm - N/A   Clear
10:55 PM 75.7 °F - 73.4 °F 92% 30.31 in 10.0 mi Calm Calm - N/A   Clear
11:14 PM 74.8 °F - 73.0 °F 94% 30.31 in 10.0 mi Calm Calm - N/A   Clear
11:35 PM 74.7 °F - 72.7 °F 94% 30.31 in 10.0 mi Calm Calm - N/A   Clear
11:55 PM 75.7 °F - 72.9 °F 91% 30.31 in 10.0 mi Calm Calm - N/A   Clear